Temperature
19 19 19 19 19 19 19 19 18 18 18 18 18 18 18 18 18 18 18 18 18 18 18 18 18 18 18 18 18 18 18 17 17 17 17 17 17 17 17 16 16 16 16
19 19 19 19 19 19 19 18 18 18 18 18 18 18 18 18 18 18 18 18 18 18 18 18 18 18 18 18 18 18 18 17 17 17 17 17 17 17 17 17 16 16 16
19 19 19 19 19 19 18 18 18 18 18 18 18 18 18 18 18 18 18 18 18 19 19 19 19 19 18 18 18 18 18 17 17 17 17 17 17 17 17 17 16 16 16
18 18 18 19 19 19 18 18 18 18 18 18 18 18 18 18 18 18 18 18 19 19 19 19 19 19 19 19 18 18 18 18 18 17 17 17 17 17 17 17 17 16 16
18 18 18 18 18 18 18 18 18 18 17 18 18 18 18 18 18 18 18 18 19 19 19 19 19 19 19 19 19 18 18 18 18 18 17 17 17 17 17 17 17 17 16
18 17 18 18 18 18 18 18 18 18 18 18 18 18 18 18 18 18 18 18 18 18 19 19 19 19 19 19 19 19 18 18 18 18 18 17 17 17 17 17 17 17 17
17 17 17 17 17 17 18 18 18 18 18 17 17 17 17 17 17 18 18 18 18 18 18 19 19 19 19 19 19 19 19 18 18 18 18 18 17 17 17 17 17 17 17
17 17 17 17 17 17 17 17 17 17 17 17 17 17 16 17 18 18 18 18 18 18 18 18 18 18 18 19 19 19 18 18 18 18 18 17 17 17 17 17 17 17 17
16 16 16 16 17 17 17 17 17 17 17 17 16 16 16 16 17 17 17 17 17 17 17 17 17 17 18 18 18 18 18 18 18 18 18 17 17 17 17 17 17 17 17
16 16 16 16 16 16 16 16 16 16 16 16 16 16 16 16 15 16 16 16 16 16 16 16 16 17 17 17 17 17 18 18 18 18 17 17 17 17 17 17 17 17 17
16 16 15 15 16 16 16 16 16 16 15 15 15 15 15 15 15 15 15 15 16 16 16 16 16 16 16 16 17 17 17 17 17 17 17 17 17 17 17 17 17 17 17
15 15 15 15 15 15 15 15 15 15 15 15 15 15 15 15 15 15 15 15 15 15 15 15 15 15 16 16 16 16 16 16 17 17 17 17 17 17 17 17 16 16 16
15 15 14 14 14 14 14 14 15 15 15 14 14 15 15 15 15 15 14 14 14 14 14 15 15 15 15 15 15 15 16 16 16 16 16 16 17 17 17 16 16 16 16
14 14 14 14 14 14 14 14 14 14 14 14 14 14 14 14 14 14 14 14 14 14 14 14 14 14 14 14 15 15 15 15 15 15 16 16 16 16 16 16 16 16 16
13 13 13 13 13 13 13 13 13 14 14 14 14 14 14 14 14 14 14 14 14 14 14 13 13 14 14 14 14 14 15 15 15 15 15 15 15 15 15 15 15 15 15
13 13 13 13 13 13 13 13 13 13 13 13 13 13 14 14 14 14 14 14 14 14 14 13 13 13 13 14 14 14 14 14 14 14 14 14 14 14 15 15 15 15 15
13 13 13 13 12 12 13 13 13 13 13 13 13 13 13 13 14 14 14 13 13 13 14 13 13 13 13 13 13 13 14 14 13 13 14 14 14 14 14 14 14 14 14
13 12 12 12 12 12 12 12 12 12 12 12 13 13 13 13 13 13 13 13 13 13 13 13 12 12 12 13 13 13 13 13 13 13 13 13 13 13 13 13 13 13 13
12 12 12 12 11 12 12 12 12 12 12 12 12 12 12 12 13 13 13 13 13 13 13 13 12 12 12 12 12 12 12 12 12 12 12 12 12 12 12 12 12 13 13
12 12 12 11 11 11 11 11 11 11 12 12 12 12 12 12 12 12 12 12 12 12 12 12 12 12 12 12 12 12 12 12 12 11 12 12 12 12 12 12 12 12 12
12 12 11 11 11 11 11 11 11 11 11 11 11 11 11 11 11 12 12 12 12 12 12 12 12 12 11 11 11 11 11 11 11 11 11 11 11 11 11 11 11 11 11
12 12 11 11 11 11 11 11 11 11 11 11 11 11 11 11 11 11 11 11 12 12 12 12 12 11 11 11 11 11 11 11 11 10 11 10 11 11 10 10 11 11 11
12 12 11 11 11 11 11 10 10 11 11 11 11 11 11 10 11 11 11 11 11 11 11 11 11 11 10 10 10 10 10 10 10 10 10 10 10 10 10 10 10 10 10
11 11 11 11 11 11 10 10 10 10 10 10 10 11 11 11 11 11 11 11 11 10 10 10 11 10 10 10 10 10 10 9 9 9 9 9 9 9 9 9 9 9 10
11 11 11 11 11 11 10 10 10 10 10 10 10 10 10 11 10 11 11 11 10 10 10 10 10 10 9 9 9 9 9 9 9 9 9 9 9 9 9 9 9 9 9
11 11 11 11 11 11 10 10 10 10 10 10 10 10 10 10 10 10 10 10 10 10 10 9 9 9 9 9 9 9 8 8 8 8 8 8 8 8 8 8 8 8 9
Wind_Speed
8 7 8 9 11 12 10 9 9 9 10 11 12 11 11 12 13 13 13 17 19 19 20 20 21 21 20 21 22 24 24 25 25 25 26 26 26 26 26 26 25 25 25
9 8 9 8 9 11 11 9 10 9 8 8 10 10 10 11 12 13 14 15 18 19 20 21 21 21 21 21 22 23 23 24 24 25 26 26 27 27 26 26 26 26 26
12 9 9 9 9 10 10 8 7 6 7 7 9 10 9 9 10 12 13 13 14 16 19 20 21 21 22 22 22 23 23 24 24 25 25 26 26 26 26 26 26 26 26
15 10 10 10 9 9 7 6 6 5 7 7 7 7 7 7 10 10 11 12 13 14 16 18 19 20 22 22 23 23 24 24 25 25 26 26 26 26 26 25 25 25 26
13 10 10 9 9 8 8 8 6 5 6 7 7 7 7 7 9 9 10 12 13 14 14 15 18 20 22 23 23 23 24 24 25 25 26 26 26 26 26 25 25 24 25
10 8 8 10 9 8 8 8 8 8 7 7 8 9 7 8 8 10 11 10 10 13 13 14 14 15 19 21 22 22 22 23 24 25 26 26 26 26 26 25 25 24 25
6 5 6 7 7 8 9 10 8 9 8 6 5 6 7 9 10 9 9 9 10 10 10 10 10 11 12 15 18 19 20 21 23 24 25 25 26 26 26 25 25 25 24
5 5 5 6 6 6 8 9 7 5 6 7 6 4 4 4 5 7 6 7 8 6 7 7 7 8 9 9 10 12 14 16 18 20 22 23 24 25 25 25 25 25 24
7 6 7 6 6 6 7 8 8 9 8 7 7 6 5 6 3 3 4 5 5 5 5 5 6 5 6 5 5 6 7 7 8 12 15 19 22 23 24 25 25 25 25
7 7 7 7 7 6 7 8 8 8 9 8 6 8 7 4 4 3 2 3 4 5 5 4 4 3 2 1 1 2 3 3 3 5 7 11 16 20 22 25 25 25 25
7 8 8 7 7 7 8 8 7 8 8 8 6 5 6 6 6 5 4 3 2 3 3 3 2 0 1 2 2 4 6 6 5 3 2 3 7 14 19 23 25 25 24
6 8 8 8 8 7 8 8 8 9 9 9 8 7 5 4 5 6 7 4 3 2 1 1 1 1 1 2 4 7 8 8 8 7 6 5 3 2 10 17 21 22 23
6 8 9 9 9 9 9 9 9 9 9 10 10 8 8 6 4 5 5 4 3 2 0 1 2 2 2 3 4 6 8 8 9 9 9 9 8 7 4 3 8 12 15
7 8 10 10 10 10 9 9 8 9 8 9 10 9 7 7 6 5 5 4 3 2 1 1 1 3 2 3 5 6 6 8 9 10 11 12 12 11 11 9 7 4 4
7 8 9 10 10 10 9 8 7 8 7 8 8 8 7 6 6 6 5 4 5 4 2 1 2 3 3 4 6 6 6 8 10 10 11 12 13 13 12 12 11 10 9
6 8 9 10 10 9 9 8 7 7 7 6 6 7 7 6 6 5 5 4 4 4 3 2 2 3 4 5 9 9 9 11 11 11 11 11 12 12 12 12 12 11 9
6 7 8 9 9 9 8 6 6 6 6 5 5 7 7 6 5 5 4 4 3 4 5 3 3 4 5 7 7 8 9 9 9 12 12 11 11 11 11 11 11 10 9
5 6 7 8 8 8 8 6 4 2 2 3 3 5 5 5 5 5 4 5 4 5 7 7 3 4 6 6 6 7 7 8 9 12 13 12 11 11 11 10 10 9 9
4 5 6 7 7 7 7 6 5 5 4 4 3 5 6 7 7 6 7 7 7 7 7 8 5 3 5 5 6 6 8 7 7 10 11 11 11 10 10 10 10 9 8
3 3 4 5 6 6 6 6 6 7 7 8 7 7 6 7 8 9 9 9 9 10 9 9 6 4 5 4 4 5 6 6 7 7 8 8 10 10 10 10 9 9 9
3 2 2 4 4 4 4 5 5 7 8 8 9 8 8 10 11 9 9 9 10 10 9 9 7 6 5 5 4 3 4 3 6 6 5 6 5 6 7 9 10 10 9
4 2 1 1 2 2 4 6 5 6 7 8 9 9 10 12 16 16 15 13 11 11 10 8 7 7 5 4 3 4 3 3 3 6 5 5 5 5 5 7 10 11 11
5 4 3 2 1 1 3 5 6 6 6 6 7 8 9 10 12 13 16 17 15 13 10 8 9 6 4 2 3 5 4 5 4 4 3 5 5 4 4 7 12 13 13
7 6 5 5 3 3 5 6 7 7 7 7 7 8 9 8 9 12 12 12 10 9 8 7 7 5 4 3 2 3 3 3 3 4 4 4 4 3 4 5 10 14 15
9 8 6 7 6 5 8 10 9 6 7 7 6 6 8 9 11 14 13 12 10 8 10 12 11 10 11 8 4 4 4 5 5 4 5 3 4 3 3 3 7 14 16
11 10 9 8 8 8 10 12 11 7 7 6 5 6 8 9 11 12 11 11 10 7 7 9 9 10 10 11 11 6 4 4 3 4 5 4 4 4 3 3 4 9 12
Wind_Direction
247 248 251 251 250 248 245 246 248 250 252 254 251 249 251 251 253 254 258 264 266 267 270 272 271 269 264 256 247 240 235 230 225 222 220 220 221 221 221 220 218 217 215
243 245 248 247 248 246 244 243 247 250 254 257 258 253 251 253 255 255 256 263 266 267 268 270 271 269 264 256 248 241 237 233 229 225 222 222 222 222 222 222 221 219 216
240 242 249 250 250 250 247 248 254 255 259 257 259 260 258 255 256 258 259 260 263 265 263 263 265 265 262 257 249 243 238 234 230 227 224 223 223 223 222 222 222 220 217
241 240 245 250 247 243 240 240 246 255 260 258 260 264 259 256 257 257 259 257 258 262 262 261 261 262 261 259 253 246 240 235 231 228 225 224 223 223 222 221 221 219 216
247 239 243 247 242 238 235 234 227 223 243 249 252 253 251 251 255 259 259 258 257 258 261 263 262 261 261 260 256 249 242 237 234 230 227 225 224 222 221 220 220 217 215
258 248 245 246 242 236 232 222 219 217 224 234 252 256 245 247 251 252 257 260 258 260 263 265 265 263 258 256 254 251 246 240 237 232 229 226 223 221 219 218 217 215 213
284 269 261 253 244 239 236 226 221 224 226 219 235 258 256 247 247 248 251 255 257 261 265 264 262 258 257 252 249 249 248 244 240 237 232 227 223 220 217 215 215 213 212
309 294 274 267 258 251 246 234 226 226 230 206 211 228 261 268 248 246 246 248 252 257 263 268 267 260 255 250 248 245 246 246 244 241 235 229 223 218 216 214 212 211 210
312 300 290 280 269 256 253 247 233 227 233 223 208 206 219 236 254 265 248 245 246 252 262 273 270 268 262 248 246 248 252 257 260 253 243 232 223 217 214 212 210 209 208
308 304 296 286 278 270 265 260 244 234 233 235 223 220 222 199 207 252 263 250 250 257 265 269 269 267 270 284 9 25 24 10 329 290 268 241 224 216 213 213 211 209 208
307 307 301 293 284 276 270 264 255 239 232 232 221 208 218 220 220 223 248 258 269 266 275 275 257 273 18 40 52 53 57 50 37 14 332 276 233 219 215 215 213 211 210
308 310 310 301 290 281 273 265 256 244 236 233 226 210 197 195 202 210 226 234 248 265 298 342 43 42 44 50 62 66 66 59 50 46 45 44 42 217 217 215 215 215 214
313 313 313 306 298 287 280 270 260 251 239 233 227 221 213 209 185 186 203 213 225 240 347 33 23 26 41 47 50 55 63 65 60 57 57 59 58 56 66 168 205 210 214
301 304 309 305 299 293 287 277 266 255 242 233 228 219 215 214 201 188 182 177 190 203 150 87 34 31 31 46 50 60 67 68 68 65 63 63 62 62 65 71 79 105 172
304 309 312 309 304 298 291 282 266 258 246 235 227 217 214 212 205 200 188 180 174 176 162 89 67 23 30 61 54 69 73 74 75 72 69 67 66 64 65 67 70 71 72
309 316 319 317 313 308 300 286 272 260 248 238 224 216 214 209 201 194 192 191 182 159 135 91 65 40 44 72 61 72 75 77 73 75 74 73 72 70 69 67 67 65 63
313 322 325 325 325 322 317 301 281 262 246 236 220 211 209 195 185 179 171 161 152 134 124 97 53 43 58 68 65 68 71 73 72 72 74 74 74 73 71 69 66 62 56
313 323 329 334 339 340 340 336 324 299 241 219 200 181 172 161 148 142 137 132 128 121 126 120 74 51 57 60 66 66 62 66 68 67 69 70 74 75 71 68 65 59 50
312 330 340 345 347 353 2 12 25 44 60 74 101 126 129 127 118 113 111 112 111 109 108 115 98 63 64 55 65 66 61 54 57 57 59 60 63 69 68 65 60 52 42
291 324 341 345 352 5 16 28 46 58 64 63 64 75 90 104 112 113 110 111 112 108 105 106 100 79 65 51 67 70 68 52 45 38 44 47 50 57 57 52 45 37 28
256 288 332 347 356 10 29 40 58 69 71 70 64 64 77 95 99 104 115 115 113 110 106 103 99 89 71 62 62 57 78 66 50 28 29 33 34 44 43 38 34 25 17
239 244 268 331 5 22 46 60 73 80 81 82 80 76 80 86 90 90 94 97 106 113 113 107 101 97 87 75 67 67 68 61 42 9 16 23 24 36 30 32 21 17 11
218 215 212 190 159 104 98 87 78 81 80 83 89 91 94 95 97 99 89 83 81 86 100 113 107 106 103 97 95 83 73 72 61 356 4 22 9 15 10 16 14 14 9
211 208 200 188 172 172 152 129 103 87 81 73 79 97 107 103 107 109 103 93 84 76 85 93 104 102 103 110 103 103 100 90 72 36 21 26 356 348 342 360 13 14 10
213 205 195 184 176 175 165 147 127 107 95 81 76 93 111 109 115 114 110 104 94 82 79 86 86 82 79 77 95 99 83 80 57 25 18 19 354 335 333 346 358 6 4
215 204 194 188 180 175 169 155 138 129 116 106 89 83 100 117 122 122 122 122 116 112 109 94 76 64 66 62 60 68 88 89 73 35 9 8 5 0 359 347 348 2 5
Height
1532 1532 1532 1532 1533 1533 1533 1533 1534 1533 1533 1533 1533 1532 1532 1532 1532 1532 1532 1532 1532 1532 1532 1532 1532 1532 1532 1532 1533 1533 1534 1534 1535 1536 1537 1538 1539 1541 1543 1545 1547 1549 1551
1528 1528 1528 1528 1528 1528 1529 1529 1529 1529 1529 1529 1529 1529 1528 1528 1528 1528 1528 1528 1528 1528 1528 1528 1528 1527 1527 1527 1528 1528 1529 1530 1530 1531 1532 1533 1535 1536 1538 1540 1542 1545 1547
1524 1524 1523 1523 1523 1523 1523 1523 1524 1524 1524 1524 1524 1524 1524 1524 1523 1523 1523 1523 1523 1522 1522 1522 1522 1522 1522 1522 1523 1523 1524 1524 1525 1526 1527 1528 1530 1531 1533 1535 1537 1540 1542
1519 1518 1517 1517 1517 1517 1517 1517 1517 1517 1518 1518 1518 1518 1518 1517 1517 1517 1517 1517 1516 1516 1516 1516 1516 1516 1516 1516 1516 1517 1518 1519 1520 1521 1522 1523 1525 1526 1528 1530 1532 1534 1537
1513 1512 1511 1510 1510 1510 1510 1510 1509 1510 1510 1510 1510 1510 1511 1511 1511 1511 1511 1510 1510 1509 1509 1509 1509 1509 1509 1509 1510 1510 1511 1512 1514 1515 1516 1517 1519 1521 1523 1525 1527 1529 1531
1507 1506 1504 1503 1503 1503 1502 1501 1501 1501 1502 1503 1503 1503 1503 1503 1504 1504 1504 1504 1503 1503 1502 1502 1501 1501 1502 1502 1503 1504 1505 1506 1507 1508 1510 1511 1513 1515 1517 1519 1521 1524 1526
1500 1498 1497 1496 1495 1495 1494 1493 1493 1494 1494 1495 1496 1495 1495 1496 1496 1497 1497 1497 1496 1496 1495 1495 1494 1494 1494 1495 1496 1497 1498 1499 1500 1502 1503 1505 1507 1509 1511 1513 1516 1518 1521
1495 1493 1491 1489 1488 1487 1487 1486 1486 1486 1486 1488 1488 1489 1488 1489 1488 1489 1489 1489 1489 1489 1488 1488 1487 1487 1488 1488 1489 1490 1492 1493 1494 1495 1497 1498 1500 1502 1505 1507 1510 1512 1515
1490 1487 1485 1483 1482 1480 1479 1479 1479 1479 1478 1479 1481 1482 1482 1480 1481 1481 1481 1482 1483 1482 1482 1482 1482 1481 1481 1482 1482 1484 1486 1487 1488 1489 1490 1492 1494 1496 1498 1501 1503 1506 1509
1484 1482 1479 1477 1476 1474 1473 1472 1472 1471 1471 1472 1473 1474 1475 1475 1477 1475 1476 1476 1477 1477 1477 1477 1477 1476 1476 1476 1477 1478 1479 1481 1482 1483 1484 1485 1487 1490 1492 1495 1497 1500 1503
1480 1477 1474 1471 1469 1467 1466 1465 1465 1464 1464 1465 1466 1467 1468 1469 1470 1471 1470 1471 1472 1472 1472 1472 1472 1472 1472 1472 1472 1473 1474 1475 1476 1477 1478 1479 1481 1483 1486 1489 1492 1494 1497
1474 1471 1468 1465 1463 1461 1459 1458 1458 1457 1458 1458 1459 1460 1461 1462 1463 1464 1465 1465 1467 1468 1468 1468 1468 1468 1469 1469 1469 1470 1471 1471 1472 1472 1473 1474 1476 1478 1480 1483 1486 1489 1492
1469 1466 1462 1460 1457 1454 1453 1451 1451 1450 1451 1451 1452 1453 1454 1456 1457 1459 1460 1461 1463 1464 1465 1465 1465 1466 1467 1467 1468 1468 1469 1469 1469 1469 1470 1470 1471 1473 1475 1478 1480 1483 1486
1465 1461 1458 1454 1451 1449 1446 1445 1444 1443 1444 1444 1445 1447 1448 1449 1451 1453 1455 1457 1459 1461 1461 1463 1463 1464 1465 1466 1466 1467 1467 1467 1467 1467 1467 1467 1468 1470 1471 1473 1475 1478 1481
1462 1458 1454 1450 1447 1444 1441 1439 1438 1437 1438 1438 1439 1441 1442 1444 1446 1448 1450 1453 1455 1457 1459 1460 1461 1462 1463 1465 1465 1466 1466 1466 1466 1466 1466 1466 1466 1467 1469 1470 1472 1474 1477
1459 1455 1451 1447 1443 1440 1437 1434 1433 1432 1432 1433 1434 1435 1437 1439 1441 1444 1446 1448 1451 1453 1455 1457 1458 1460 1462 1463 1464 1465 1465 1465 1465 1465 1465 1465 1466 1466 1467 1468 1470 1471 1473
1456 1452 1448 1444 1440 1436 1433 1430 1428 1427 1428 1428 1429 1431 1433 1435 1438 1440 1443 1445 1447 1450 1452 1455 1457 1459 1461 1462 1463 1464 1464 1464 1464 1464 1464 1464 1465 1466 1466 1467 1468 1469 1470
1453 1450 1446 1442 1438 1435 1431 1428 1425 1424 1424 1424 1425 1427 1429 1432 1434 1437 1440 1442 1445 1447 1450 1452 1456 1459 1461 1462 1463 1464 1464 1464 1464 1464 1464 1464 1465 1465 1465 1466 1467 1467 1468
1451 1448 1444 1441 1437 1434 1431 1427 1425 1423 1423 1423 1424 1425 1427 1430 1432 1435 1438 1440 1444 1447 1450 1453 1456 1459 1461 1462 1463 1464 1464 1464 1465 1465 1465 1465 1465 1465 1465 1465 1465 1466 1466
1449 1446 1443 1440 1437 1434 1431 1429 1426 1425 1424 1424 1424 1425 1427 1429 1432 1434 1437 1441 1444 1447 1451 1454 1457 1460 1462 1463 1464 1465 1465 1466 1465 1466 1466 1465 1465 1465 1465 1465 1464 1464 1464
1447 1445 1442 1440 1438 1435 1433 1431 1429 1427 1426 1427 1427 1428 1429 1431 1434 1437 1440 1443 1446 1450 1453 1456 1458 1460 1462 1464 1465 1466 1466 1467 1467 1467 1467 1466 1466 1465 1465 1464 1464 1463 1462
1444 1443 1441 1440 1438 1437 1435 1433 1432 1431 1430 1430 1430 1432 1433 1435 1438 1441 1444 1447 1450 1453 1455 1457 1459 1461 1463 1464 1466 1467 1467 1467 1467 1468 1467 1467 1466 1465 1465 1464 1463 1462 1461
1441 1440 1439 1439 1438 1437 1436 1435 1435 1434 1434 1434 1435 1436 1437 1440 1442 1444 1448 1450 1453 1456 1458 1460 1461 1463 1464 1465 1466 1467 1467 1467 1467 1468 1468 1467 1467 1466 1465 1464 1463 1461 1459
1436 1437 1436 1437 1437 1437 1437 1437 1437 1437 1438 1438 1439 1441 1442 1444 1447 1448 1451 1453 1455 1458 1460 1462 1463 1464 1465 1466 1467 1468 1468 1468 1468 1468 1468 1468 1467 1466 1465 1464 1462 1460 1458
1430 1432 1433 1434 1434 1435 1436 1437 1438 1439 1440 1441 1443 1444 1446 1448 1450 1452 1453 1455 1457 1460 1462 1463 1464 1465 1466 1467 1468 1468 1468 1468 1468 1468 1468 1467 1466 1465 1464 1463 1461 1459 1456
1423 1426 1428 1429 1431 1433 1435 1437 1438 1440 1441 1442 1444 1446 1448 1450 1452 1454 1455 1457 1458 1461 1463 1465 1466 1467 1467 1468 1468 1468 1468 1468 1468 1468 1468 1467 1466 1464 1464 1463 1460 1458 1455